Retour au catalogue

WESTFORD NEEDLES *

ActifPO
NORAD 3267·DEBRIS·🇺🇸 United States

Lancé May 9, 1963 depuis Vandenberg Space Force Base

Loading…

Prochains Passages (prochaines 24 heures)

TLE

FraisSource: Space-Track

Époque: Sep 14, 2026, 09:59 UTC

1 03267U 63014CF  26257.41650028  .00000055  00000-0  40194-4 0  9992
2 03267  88.3710  70.4773 1686158 311.3319  35.4113 11.34168188552450

Suivez WESTFORD NEEDLES * en temps réel avec AllMySat

Download on the App Store